Year,Month,Day,Hour,Minute,Value (Times are PST for temperature in C)
2018,06,18,00,00,25.40
2018,06,18,00,01,25.30
2018,06,18,00,02,25.30
2018,06,18,00,03,25.20
2018,06,18,00,04,25.20
2018,06,18,00,05,25.10
2018,06,18,00,06,25.10
2018,06,18,00,07,25.00
2018,06,18,00,08,24.90
2018,06,18,00,09,24.90
2018,06,18,00,10,24.80
2018,06,18,00,11,24.80
2018,06,18,00,12,24.70
2018,06,18,00,13,24.70
2018,06,18,00,14,24.60
2018,06,18,00,15,24.50
2018,06,18,00,16,24.50
2018,06,18,00,17,24.40
2018,06,18,00,18,24.30
2018,06,18,00,19,24.30
2018,06,18,00,20,24.20
2018,06,18,00,21,24.20
2018,06,18,00,22,24.20
2018,06,18,00,23,24.10
2018,06,18,00,24,24.10
2018,06,18,00,25,24.00
2018,06,18,00,26,24.00
2018,06,18,00,27,23.90
2018,06,18,00,28,23.90
2018,06,18,00,29,23.80
2018,06,18,00,30,23.80
2018,06,18,00,31,23.70
2018,06,18,00,32,23.70
2018,06,18,00,33,23.70
2018,06,18,00,34,23.70
2018,06,18,00,35,23.70
2018,06,18,00,36,23.60
2018,06,18,00,37,23.60
2018,06,18,00,38,23.60
2018,06,18,00,39,23.60
2018,06,18,00,40,23.60
2018,06,18,00,41,23.60
2018,06,18,00,42,23.60
2018,06,18,00,43,23.50
2018,06,18,00,44,23.50
2018,06,18,00,45,23.40
2018,06,18,00,46,23.40
2018,06,18,00,47,23.40
2018,06,18,00,48,23.40
2018,06,18,00,49,23.40
2018,06,18,00,50,23.40
2018,06,18,00,51,23.40
2018,06,18,00,52,23.30
2018,06,18,00,53,23.30
2018,06,18,00,54,23.30
2018,06,18,00,55,23.30
2018,06,18,00,56,23.30
2018,06,18,00,57,23.20
2018,06,18,00,58,23.20
2018,06,18,00,59,23.20
2018,06,18,01,00,23.20
2018,06,18,01,01,23.10
2018,06,18,01,02,23.10
2018,06,18,01,03,23.10
2018,06,18,01,04,23.10
2018,06,18,01,05,23.00
2018,06,18,01,06,23.00
2018,06,18,01,07,22.90
2018,06,18,01,08,22.90
2018,06,18,01,09,22.90
2018,06,18,01,10,22.80
2018,06,18,01,11,22.80
2018,06,18,01,12,22.80
2018,06,18,01,13,22.80
2018,06,18,01,14,22.70
2018,06,18,01,15,22.70
2018,06,18,01,16,22.70
2018,06,18,01,17,22.70
2018,06,18,01,18,22.70
2018,06,18,01,19,22.70
2018,06,18,01,20,22.70
2018,06,18,01,21,22.70
2018,06,18,01,22,22.70
2018,06,18,01,23,22.70
2018,06,18,01,24,22.70
2018,06,18,01,25,22.70
2018,06,18,01,26,22.70
2018,06,18,01,27,22.70
2018,06,18,01,28,22.70
2018,06,18,01,29,22.70
2018,06,18,01,30,22.70
2018,06,18,01,31,22.70
2018,06,18,01,32,22.70
2018,06,18,01,33,22.80
2018,06,18,01,34,22.80
2018,06,18,01,35,22.70
2018,06,18,01,36,22.70
2018,06,18,01,37,22.70
2018,06,18,01,38,22.70
2018,06,18,01,39,22.70
2018,06,18,01,40,22.70
2018,06,18,01,41,22.70
2018,06,18,01,42,22.70
2018,06,18,01,43,22.70
2018,06,18,01,44,22.70
2018,06,18,01,45,22.70
2018,06,18,01,46,22.70
2018,06,18,01,47,22.70
2018,06,18,01,48,22.70
2018,06,18,01,49,22.60
2018,06,18,01,50,22.60
2018,06,18,01,51,22.60
2018,06,18,01,52,22.50
2018,06,18,01,53,22.50
2018,06,18,01,54,22.40
2018,06,18,01,55,22.40
2018,06,18,01,56,22.40
2018,06,18,01,57,22.30
2018,06,18,01,58,22.30
2018,06,18,01,59,22.30
2018,06,18,02,00,22.30
2018,06,18,02,01,22.30
2018,06,18,02,02,22.30
2018,06,18,02,03,22.30
2018,06,18,02,04,22.30
2018,06,18,02,05,22.30
2018,06,18,02,06,22.30
2018,06,18,02,07,22.30
2018,06,18,02,08,22.40
2018,06,18,02,09,22.40
2018,06,18,02,10,22.30
2018,06,18,02,11,22.30
2018,06,18,02,12,22.30
2018,06,18,02,13,22.30
2018,06,18,02,14,22.30
2018,06,18,02,15,22.20
2018,06,18,02,16,22.20
2018,06,18,02,17,22.20
2018,06,18,02,18,22.20
2018,06,18,02,19,22.10
2018,06,18,02,20,22.10
2018,06,18,02,21,22.10
2018,06,18,02,22,22.00
2018,06,18,02,23,22.00
2018,06,18,02,24,22.00
2018,06,18,02,25,22.00
2018,06,18,02,26,22.00
2018,06,18,02,27,22.00
2018,06,18,02,28,22.00
2018,06,18,02,29,22.00
2018,06,18,02,30,22.00
2018,06,18,02,31,21.90
2018,06,18,02,32,22.00
2018,06,18,02,33,22.00
2018,06,18,02,34,22.00
2018,06,18,02,35,22.00
2018,06,18,02,36,22.00
2018,06,18,02,37,22.10
2018,06,18,02,38,22.10
2018,06,18,02,39,22.10
2018,06,18,02,40,22.10
2018,06,18,02,41,22.10
2018,06,18,02,42,22.10
2018,06,18,02,43,22.10
2018,06,18,02,44,22.10
2018,06,18,02,45,22.10
2018,06,18,02,46,22.10
2018,06,18,02,47,22.10
2018,06,18,02,48,22.00
2018,06,18,02,49,22.00
2018,06,18,02,50,22.00
2018,06,18,02,51,22.00
2018,06,18,02,52,22.00
2018,06,18,02,53,22.00
2018,06,18,02,54,22.00
2018,06,18,02,55,21.90
2018,06,18,02,56,21.90
2018,06,18,02,57,21.90
2018,06,18,02,58,21.90
2018,06,18,02,59,21.80
2018,06,18,03,00,21.80
2018,06,18,03,01,21.80
2018,06,18,03,02,21.80
2018,06,18,03,03,21.80
2018,06,18,03,04,21.70
2018,06,18,03,05,21.70
2018,06,18,03,06,21.70
2018,06,18,03,07,21.60
2018,06,18,03,08,21.60
2018,06,18,03,09,21.60
2018,06,18,03,10,21.60
2018,06,18,03,11,21.60
2018,06,18,03,12,21.60
2018,06,18,03,13,21.60
2018,06,18,03,14,21.60
2018,06,18,03,15,21.60
2018,06,18,03,16,21.60
2018,06,18,03,17,21.60
2018,06,18,03,18,21.60
2018,06,18,03,19,21.60
2018,06,18,03,20,21.60
2018,06,18,03,21,21.60
2018,06,18,03,22,21.60
2018,06,18,03,23,21.60
2018,06,18,03,24,21.70
2018,06,18,03,25,21.70
2018,06,18,03,26,21.70
2018,06,18,03,27,21.70
2018,06,18,03,28,21.70
2018,06,18,03,29,21.70
2018,06,18,03,30,21.70
2018,06,18,03,31,21.70
2018,06,18,03,32,21.70
2018,06,18,03,33,21.60
2018,06,18,03,34,21.60
2018,06,18,03,35,21.60
2018,06,18,03,36,21.60
2018,06,18,03,37,21.50
2018,06,18,03,38,21.50
2018,06,18,03,39,21.50
2018,06,18,03,40,21.50
2018,06,18,03,41,21.50
2018,06,18,03,42,21.50
2018,06,18,03,43,21.50
2018,06,18,03,44,21.50
2018,06,18,03,45,21.50
2018,06,18,03,46,21.50
2018,06,18,03,47,21.50
2018,06,18,03,48,21.50
2018,06,18,03,49,21.50
2018,06,18,03,50,21.50
2018,06,18,03,51,21.60
2018,06,18,03,52,21.60
2018,06,18,03,53,21.60
2018,06,18,03,54,21.60
2018,06,18,03,55,21.60
2018,06,18,03,56,21.60
2018,06,18,03,57,21.50
2018,06,18,03,58,21.50
2018,06,18,03,59,21.40
2018,06,18,04,00,21.40
2018,06,18,04,01,21.30
2018,06,18,04,02,21.30
2018,06,18,04,03,21.20
2018,06,18,04,04,21.20
2018,06,18,04,05,21.10
2018,06,18,04,06,21.10
2018,06,18,04,07,21.00
2018,06,18,04,08,21.00
2018,06,18,04,09,20.90
2018,06,18,04,10,20.90
2018,06,18,04,11,20.90
2018,06,18,04,12,20.80
2018,06,18,04,13,20.80
2018,06,18,04,14,20.80
2018,06,18,04,15,20.70
2018,06,18,04,16,20.70
2018,06,18,04,17,20.70
2018,06,18,04,18,20.70
2018,06,18,04,19,20.60
2018,06,18,04,20,20.60
2018,06,18,04,21,20.60
2018,06,18,04,22,20.60
2018,06,18,04,23,20.60
2018,06,18,04,24,20.60
2018,06,18,04,25,20.60
2018,06,18,04,26,20.60
2018,06,18,04,27,20.60
2018,06,18,04,28,20.60
2018,06,18,04,29,20.60
2018,06,18,04,30,20.60
2018,06,18,04,31,20.60
2018,06,18,04,32,20.60
2018,06,18,04,33,20.70
2018,06,18,04,34,20.70
2018,06,18,04,35,20.80
2018,06,18,04,36,20.80
2018,06,18,04,37,20.80
2018,06,18,04,38,20.80
2018,06,18,04,39,20.80
2018,06,18,04,40,20.80
2018,06,18,04,41,20.80
2018,06,18,04,42,20.80
2018,06,18,04,43,20.80
2018,06,18,04,44,20.80
2018,06,18,04,45,20.80
2018,06,18,04,46,20.80
2018,06,18,04,47,20.80
2018,06,18,04,48,20.80
2018,06,18,04,49,20.80
2018,06,18,04,50,20.80
2018,06,18,04,51,20.80
2018,06,18,04,52,20.80
2018,06,18,04,53,20.80
2018,06,18,04,54,20.80
2018,06,18,04,55,20.80
2018,06,18,04,56,20.70
2018,06,18,04,57,20.70
2018,06,18,04,58,20.70
2018,06,18,04,59,20.70
2018,06,18,05,00,20.70
2018,06,18,05,01,20.70
2018,06,18,05,02,20.70
2018,06,18,05,03,20.70
2018,06,18,05,04,20.70
2018,06,18,05,05,20.60
2018,06,18,05,06,20.60
2018,06,18,05,07,20.60
2018,06,18,05,08,20.70
2018,06,18,05,09,20.70
2018,06,18,05,10,20.70
2018,06,18,05,11,20.70
2018,06,18,05,12,20.70
2018,06,18,05,13,20.70
2018,06,18,05,14,20.70
2018,06,18,05,15,20.70
2018,06,18,05,16,20.70
2018,06,18,05,17,20.70
2018,06,18,05,18,20.60
2018,06,18,05,19,20.60
2018,06,18,05,20,20.60
2018,06,18,05,21,20.60
2018,06,18,05,22,20.60
2018,06,18,05,23,20.60
2018,06,18,05,24,20.70
2018,06,18,05,25,20.70
2018,06,18,05,26,20.70
2018,06,18,05,27,20.60
2018,06,18,05,28,20.60
2018,06,18,05,29,20.60
2018,06,18,05,30,20.60
2018,06,18,05,31,20.50
2018,06,18,05,32,20.50
2018,06,18,05,33,20.50
2018,06,18,05,34,20.50
2018,06,18,05,35,20.50
2018,06,18,05,36,20.50
2018,06,18,05,37,20.50
2018,06,18,05,38,20.50
2018,06,18,05,39,20.50
2018,06,18,05,40,20.60
2018,06,18,05,41,20.60
2018,06,18,05,42,20.70
2018,06,18,05,43,20.70
2018,06,18,05,44,20.80
2018,06,18,05,45,20.80
2018,06,18,05,46,20.90
2018,06,18,05,47,20.90
2018,06,18,05,48,20.90
2018,06,18,05,49,21.00
2018,06,18,05,50,21.00
2018,06,18,05,51,21.00
2018,06,18,05,52,21.10
2018,06,18,05,53,21.10
2018,06,18,05,54,21.10
2018,06,18,05,55,21.10
2018,06,18,05,56,21.10
2018,06,18,05,57,21.10
2018,06,18,05,58,21.10
2018,06,18,05,59,21.10
2018,06,18,06,00,21.10
2018,06,18,06,01,21.10
2018,06,18,06,02,21.10
2018,06,18,06,03,21.10
2018,06,18,06,04,21.10
2018,06,18,06,05,21.10
2018,06,18,06,06,21.10
2018,06,18,06,07,21.20
2018,06,18,06,08,21.10
2018,06,18,06,09,21.10
2018,06,18,06,10,21.10
2018,06,18,06,11,21.10
2018,06,18,06,12,21.10
2018,06,18,06,13,21.10
2018,06,18,06,14,21.20
2018,06,18,06,15,21.20
2018,06,18,06,16,21.20
2018,06,18,06,17,21.20
2018,06,18,06,18,21.20
2018,06,18,06,19,21.20
2018,06,18,06,20,21.20
2018,06,18,06,21,21.30
2018,06,18,06,22,21.30
2018,06,18,06,23,21.30
2018,06,18,06,24,21.40
2018,06,18,06,25,21.40
2018,06,18,06,26,21.50
2018,06,18,06,27,21.50
2018,06,18,06,28,21.60
2018,06,18,06,29,21.60
2018,06,18,06,30,21.70
2018,06,18,06,31,21.70
2018,06,18,06,32,21.80
2018,06,18,06,33,21.80
2018,06,18,06,34,21.80
2018,06,18,06,35,21.80
2018,06,18,06,36,21.80
2018,06,18,06,37,21.80
2018,06,18,06,38,21.80
2018,06,18,06,39,21.80
2018,06,18,06,40,21.80
2018,06,18,06,41,21.80
2018,06,18,06,42,21.80
2018,06,18,06,43,21.80
2018,06,18,06,44,21.80
2018,06,18,06,45,21.80
2018,06,18,06,46,21.80
2018,06,18,06,47,21.80
2018,06,18,06,48,21.80
2018,06,18,06,49,21.80
2018,06,18,06,50,21.70
2018,06,18,06,51,21.80
2018,06,18,06,52,21.80
2018,06,18,06,53,21.80
2018,06,18,06,54,21.80
2018,06,18,06,55,21.80
2018,06,18,06,56,21.80
2018,06,18,06,57,21.80
2018,06,18,06,58,21.80
2018,06,18,06,59,21.90
2018,06,18,07,00,21.80
2018,06,18,07,01,21.80
2018,06,18,07,02,21.80
2018,06,18,07,03,21.90
2018,06,18,07,04,21.80
2018,06,18,07,05,21.90
2018,06,18,07,06,21.90
2018,06,18,07,07,21.90
2018,06,18,07,08,21.90
2018,06,18,07,09,21.90
2018,06,18,07,10,21.90
2018,06,18,07,11,21.90
2018,06,18,07,12,21.90
2018,06,18,07,13,21.90
2018,06,18,07,14,21.90
2018,06,18,07,15,21.90
2018,06,18,07,16,22.00
2018,06,18,07,17,22.00
2018,06,18,07,18,22.00
2018,06,18,07,19,22.10
2018,06,18,07,20,22.10
2018,06,18,07,21,22.10
2018,06,18,07,22,22.10
2018,06,18,07,23,22.20
2018,06,18,07,24,22.20
2018,06,18,07,25,22.20
2018,06,18,07,26,22.20
2018,06,18,07,27,22.20
2018,06,18,07,28,22.30
2018,06,18,07,29,22.30
2018,06,18,07,30,22.30
2018,06,18,07,31,22.30
2018,06,18,07,32,22.30
2018,06,18,07,33,22.30
2018,06,18,07,34,22.30
2018,06,18,07,35,22.40
2018,06,18,07,36,22.40
2018,06,18,07,37,22.40
2018,06,18,07,38,22.40
2018,06,18,07,39,22.40
2018,06,18,07,40,22.50
2018,06,18,07,41,22.50
2018,06,18,07,42,22.50
2018,06,18,07,43,22.50
2018,06,18,07,44,22.60
2018,06,18,07,45,22.60
2018,06,18,07,46,22.60
2018,06,18,07,47,22.60
2018,06,18,07,48,22.60
2018,06,18,07,49,22.60
2018,06,18,07,50,22.60
2018,06,18,07,51,22.60
2018,06,18,07,52,22.60
2018,06,18,07,53,22.60
2018,06,18,07,54,22.50
2018,06,18,07,55,22.40
2018,06,18,07,56,22.40
2018,06,18,07,57,22.30
2018,06,18,07,58,22.30
2018,06,18,07,59,22.30
2018,06,18,08,00,22.30
2018,06,18,08,01,22.30
2018,06,18,08,02,22.30
2018,06,18,08,03,22.30
2018,06,18,08,04,22.20
2018,06,18,08,05,22.20
2018,06,18,08,06,22.10
2018,06,18,08,07,22.10
2018,06,18,08,08,22.00
2018,06,18,08,09,21.90
2018,06,18,08,10,21.90
2018,06,18,08,11,21.80
2018,06,18,08,12,21.80
2018,06,18,08,13,21.70
2018,06,18,08,14,21.60
2018,06,18,08,15,21.50
2018,06,18,08,16,21.50
2018,06,18,08,17,21.40
2018,06,18,08,18,21.30
2018,06,18,08,19,21.20
2018,06,18,08,20,21.10
2018,06,18,08,21,21.10
2018,06,18,08,22,21.00
2018,06,18,08,23,20.90
2018,06,18,08,24,20.80
2018,06,18,08,25,20.70
2018,06,18,08,26,20.60
2018,06,18,08,27,20.60
2018,06,18,08,28,20.50
2018,06,18,08,29,20.40
2018,06,18,08,30,20.40
2018,06,18,08,31,20.40
2018,06,18,08,32,20.40
2018,06,18,08,33,20.40
2018,06,18,08,34,20.30
2018,06,18,08,35,20.20
2018,06,18,08,36,20.10
2018,06,18,08,37,20.00
2018,06,18,08,38,19.90
2018,06,18,08,39,19.80
2018,06,18,08,40,19.80
2018,06,18,08,41,19.80
2018,06,18,08,42,19.80
2018,06,18,08,43,19.80
2018,06,18,08,44,19.90
2018,06,18,08,45,19.90
2018,06,18,08,46,20.00
2018,06,18,08,47,20.00
2018,06,18,08,48,20.00
2018,06,18,08,49,20.00
2018,06,18,08,50,19.90
2018,06,18,08,51,19.90
2018,06,18,08,52,19.90
2018,06,18,08,53,19.90
2018,06,18,08,54,19.90
2018,06,18,08,55,19.90
2018,06,18,08,56,19.90
2018,06,18,08,57,19.90
2018,06,18,08,58,20.00
2018,06,18,08,59,20.00
2018,06,18,09,00,20.00
2018,06,18,09,01,20.00
2018,06,18,09,02,20.00
2018,06,18,09,03,20.00
2018,06,18,09,04,20.00
2018,06,18,09,05,20.00
2018,06,18,09,06,20.00
2018,06,18,09,07,20.00
2018,06,18,09,08,20.00
2018,06,18,09,09,20.00
2018,06,18,09,10,20.00
2018,06,18,09,11,20.00
2018,06,18,09,12,20.00
2018,06,18,09,13,20.00
2018,06,18,09,14,20.00
2018,06,18,09,15,20.10
2018,06,18,09,16,20.20
2018,06,18,09,17,20.30
2018,06,18,09,18,20.40
2018,06,18,09,19,20.40
2018,06,18,09,20,20.50
2018,06,18,09,21,20.60
2018,06,18,09,22,20.60
2018,06,18,09,23,20.70
2018,06,18,09,24,20.70
2018,06,18,09,25,20.80
2018,06,18,09,26,20.80
2018,06,18,09,27,20.90
2018,06,18,09,28,21.00
2018,06,18,09,29,21.10
2018,06,18,09,30,21.10
2018,06,18,09,31,21.20
2018,06,18,09,32,21.20
2018,06,18,09,33,21.20
2018,06,18,09,34,21.20
2018,06,18,09,35,21.30
2018,06,18,09,36,21.30
2018,06,18,09,37,21.40
2018,06,18,09,38,21.50
2018,06,18,09,39,21.50
2018,06,18,09,40,21.60
2018,06,18,09,41,21.60
2018,06,18,09,42,21.70
2018,06,18,09,43,21.70
2018,06,18,09,44,21.80
2018,06,18,09,45,21.80
2018,06,18,09,46,21.80
2018,06,18,09,47,21.80
2018,06,18,09,48,21.80
2018,06,18,09,49,21.80
2018,06,18,09,50,21.80
2018,06,18,09,51,21.80
2018,06,18,09,52,21.90
2018,06,18,09,53,21.90
2018,06,18,09,54,22.00
2018,06,18,09,55,22.00
2018,06,18,09,56,22.10
2018,06,18,09,57,22.10
2018,06,18,09,58,22.20
2018,06,18,09,59,22.20
2018,06,18,10,00,22.30
2018,06,18,10,01,22.30
2018,06,18,10,02,22.30
2018,06,18,10,03,22.40
2018,06,18,10,04,22.40
2018,06,18,10,05,22.40
2018,06,18,10,06,22.50
2018,06,18,10,07,22.60
2018,06,18,10,08,22.70
2018,06,18,10,09,22.80
2018,06,18,10,10,22.90
2018,06,18,10,11,23.00
2018,06,18,10,12,23.10
2018,06,18,10,13,23.30
2018,06,18,10,14,23.40
2018,06,18,10,15,23.60
2018,06,18,10,16,23.70
2018,06,18,10,17,23.90
2018,06,18,10,18,24.00
2018,06,18,10,19,24.20
2018,06,18,10,20,24.30
2018,06,18,10,21,24.40
2018,06,18,10,22,24.60
2018,06,18,10,23,24.70
2018,06,18,10,24,24.80
2018,06,18,10,25,25.00
2018,06,18,10,26,25.10
2018,06,18,10,27,25.20
2018,06,18,10,28,25.30
2018,06,18,10,29,25.30
2018,06,18,10,30,25.40
2018,06,18,10,31,25.40
2018,06,18,10,32,25.50
2018,06,18,10,33,25.60
2018,06,18,10,34,25.60
2018,06,18,10,35,25.70
2018,06,18,10,36,25.80
2018,06,18,10,37,25.90
2018,06,18,10,38,25.90
2018,06,18,10,39,25.90
2018,06,18,10,40,25.80
2018,06,18,10,41,25.60
2018,06,18,10,42,25.40
2018,06,18,10,43,25.20
2018,06,18,10,44,25.00
2018,06,18,10,45,24.70
2018,06,18,10,46,24.50
2018,06,18,10,47,24.30
2018,06,18,10,48,24.20
2018,06,18,10,49,24.00
2018,06,18,10,50,23.90
2018,06,18,10,51,23.90
2018,06,18,10,52,23.90
2018,06,18,10,53,23.90
2018,06,18,10,54,23.90
2018,06,18,10,55,23.90
2018,06,18,10,56,23.90
2018,06,18,10,57,24.00
2018,06,18,10,58,24.00
2018,06,18,10,59,24.10
2018,06,18,11,00,24.20
2018,06,18,11,01,24.30
2018,06,18,11,02,24.40
2018,06,18,11,03,24.40
2018,06,18,11,04,24.50
2018,06,18,11,05,24.60
2018,06,18,11,06,24.70
2018,06,18,11,07,24.70
2018,06,18,11,08,24.60
2018,06,18,11,09,24.50
2018,06,18,11,10,24.40
2018,06,18,11,11,24.30
2018,06,18,11,12,24.20
2018,06,18,11,13,24.20
2018,06,18,11,14,24.10
2018,06,18,11,15,24.10
2018,06,18,11,16,24.00
2018,06,18,11,17,23.90
2018,06,18,11,18,23.90
2018,06,18,11,19,23.90
2018,06,18,11,20,23.90
2018,06,18,11,21,23.90
2018,06,18,11,22,23.90
2018,06,18,11,23,23.90
2018,06,18,11,24,23.80
2018,06,18,11,25,23.90
2018,06,18,11,26,23.90
2018,06,18,11,27,23.90
2018,06,18,11,28,24.00
2018,06,18,11,29,24.00
2018,06,18,11,30,24.10
2018,06,18,11,31,24.10
2018,06,18,11,32,24.10
2018,06,18,11,33,24.00
2018,06,18,11,34,24.00
2018,06,18,11,35,24.10
2018,06,18,11,36,24.10
2018,06,18,11,37,24.20
2018,06,18,11,38,24.20
2018,06,18,11,39,24.10
2018,06,18,11,40,24.00
2018,06,18,11,41,23.90
2018,06,18,11,42,23.80
2018,06,18,11,43,23.70
2018,06,18,11,44,23.70
2018,06,18,11,45,23.70
2018,06,18,11,46,23.70
2018,06,18,11,47,23.60
2018,06,18,11,48,23.60
2018,06,18,11,49,23.60
2018,06,18,11,50,23.60
2018,06,18,11,51,23.60
2018,06,18,11,52,23.60
2018,06,18,11,53,23.50
2018,06,18,11,54,23.40
2018,06,18,11,55,23.40
2018,06,18,11,56,23.30
2018,06,18,11,57,23.20
2018,06,18,11,58,23.20
2018,06,18,11,59,23.20
2018,06,18,12,00,23.10
2018,06,18,12,01,23.10
2018,06,18,12,02,23.00
2018,06,18,12,03,23.00
2018,06,18,12,04,23.00
2018,06,18,12,05,23.00
2018,06,18,12,06,22.90
2018,06,18,12,07,22.90
2018,06,18,12,08,22.80
2018,06,18,12,09,22.70
2018,06,18,12,10,22.70
2018,06,18,12,11,22.70
2018,06,18,12,12,22.70
2018,06,18,12,13,22.70
2018,06,18,12,14,22.70
2018,06,18,12,15,22.70
2018,06,18,12,16,22.80
2018,06,18,12,17,22.80
2018,06,18,12,18,22.90
2018,06,18,12,19,22.90
2018,06,18,12,20,23.00
2018,06,18,12,21,23.10
2018,06,18,12,22,23.10
2018,06,18,12,23,23.10
2018,06,18,12,24,23.20
2018,06,18,12,25,23.30
2018,06,18,12,26,23.30
2018,06,18,12,27,23.40
2018,06,18,12,28,23.40
2018,06,18,12,29,23.50
2018,06,18,12,30,23.50
2018,06,18,12,31,23.50
2018,06,18,12,32,23.50
2018,06,18,12,33,23.60
2018,06,18,12,34,23.60
2018,06,18,12,35,23.60
2018,06,18,12,36,23.60
2018,06,18,12,37,23.70
2018,06,18,12,38,23.70
2018,06,18,12,39,23.70
2018,06,18,12,40,23.70
2018,06,18,12,41,23.70
2018,06,18,12,42,23.70
2018,06,18,12,43,23.80
2018,06,18,12,44,23.80
2018,06,18,12,45,23.80
2018,06,18,12,46,23.90
2018,06,18,12,47,24.00
2018,06,18,12,48,24.10
2018,06,18,12,49,24.30
2018,06,18,12,50,24.40
2018,06,18,12,51,24.60
2018,06,18,12,52,24.70
2018,06,18,12,53,24.80
2018,06,18,12,54,24.90
2018,06,18,12,55,24.90
2018,06,18,12,56,24.90
2018,06,18,12,57,25.00
2018,06,18,12,58,25.10
2018,06,18,12,59,25.00
2018,06,18,13,00,25.00
2018,06,18,13,01,25.00
2018,06,18,13,02,25.00
2018,06,18,13,03,25.10
2018,06,18,13,04,25.20
2018,06,18,13,05,25.20
2018,06,18,13,06,25.30
2018,06,18,13,07,25.30
2018,06,18,13,08,25.30
2018,06,18,13,09,25.40
2018,06,18,13,10,25.50
2018,06,18,13,11,25.70
2018,06,18,13,12,25.80
2018,06,18,13,13,25.80
2018,06,18,13,14,25.80
2018,06,18,13,15,25.90
2018,06,18,13,16,25.90
2018,06,18,13,17,25.90
2018,06,18,13,18,25.90
2018,06,18,13,19,25.90
2018,06,18,13,20,25.90
2018,06,18,13,21,25.90
2018,06,18,13,22,26.00
2018,06,18,13,23,26.10
2018,06,18,13,24,26.10
2018,06,18,13,25,26.10
2018,06,18,13,26,26.00
2018,06,18,13,27,25.90
2018,06,18,13,28,25.80
2018,06,18,13,29,25.90
2018,06,18,13,30,25.90
2018,06,18,13,31,26.00
2018,06,18,13,32,26.00
2018,06,18,13,33,26.10
2018,06,18,13,34,26.20
2018,06,18,13,35,26.20
2018,06,18,13,36,26.20
2018,06,18,13,37,26.20
2018,06,18,13,38,26.20
2018,06,18,13,39,26.30
2018,06,18,13,40,26.30
2018,06,18,13,41,26.30
2018,06,18,13,42,26.30
2018,06,18,13,43,26.20
2018,06,18,13,44,26.20
2018,06,18,13,45,26.20
2018,06,18,13,46,26.20
2018,06,18,13,47,26.10
2018,06,18,13,48,26.10
2018,06,18,13,49,26.10
2018,06,18,13,50,26.20
2018,06,18,13,51,26.30
2018,06,18,13,52,26.30
2018,06,18,13,53,26.20
2018,06,18,13,54,26.20
2018,06,18,13,55,26.20
2018,06,18,13,56,26.20
2018,06,18,13,57,26.20
2018,06,18,13,58,26.30
2018,06,18,13,59,26.40
2018,06,18,14,00,26.50
2018,06,18,14,01,26.60
2018,06,18,14,02,26.70
2018,06,18,14,03,26.80
2018,06,18,14,04,26.90
2018,06,18,14,05,27.00
2018,06,18,14,06,27.10
2018,06,18,14,07,27.10
2018,06,18,14,08,27.10
2018,06,18,14,09,27.10
2018,06,18,14,10,27.10
2018,06,18,14,11,27.10
2018,06,18,14,12,27.00
2018,06,18,14,13,27.10
2018,06,18,14,14,27.00
2018,06,18,14,15,27.10
2018,06,18,14,16,27.10
2018,06,18,14,17,27.10
2018,06,18,14,18,27.10
2018,06,18,14,19,27.20
2018,06,18,14,20,27.20
2018,06,18,14,21,27.20
2018,06,18,14,22,27.30
2018,06,18,14,23,27.30
2018,06,18,14,24,27.40
2018,06,18,14,25,27.50
2018,06,18,14,26,27.50
2018,06,18,14,27,27.60
2018,06,18,14,28,27.60
2018,06,18,14,29,27.60
2018,06,18,14,30,27.60
2018,06,18,14,31,27.60
2018,06,18,14,32,27.60
2018,06,18,14,33,27.50
2018,06,18,14,34,27.50
2018,06,18,14,35,27.50
2018,06,18,14,36,27.60
2018,06,18,14,37,27.60
2018,06,18,14,38,27.60
2018,06,18,14,39,27.50
2018,06,18,14,40,27.50
2018,06,18,14,41,27.40
2018,06,18,14,42,27.40
2018,06,18,14,43,27.40
2018,06,18,14,44,27.50
2018,06,18,14,45,27.50
2018,06,18,14,46,27.60
2018,06,18,14,47,27.60
2018,06,18,14,48,27.50
2018,06,18,14,49,27.50
2018,06,18,14,50,27.50
2018,06,18,14,51,27.50
2018,06,18,14,52,27.60
2018,06,18,14,53,27.60
2018,06,18,14,54,27.60
2018,06,18,14,55,27.60
2018,06,18,14,56,27.70
2018,06,18,14,57,27.70
2018,06,18,14,58,27.80
2018,06,18,14,59,27.80
2018,06,18,15,00,28.00
2018,06,18,15,01,28.10
2018,06,18,15,02,28.20
2018,06,18,15,03,28.30
2018,06,18,15,04,28.40
2018,06,18,15,05,28.50
2018,06,18,15,06,28.50
2018,06,18,15,07,28.60
2018,06,18,15,08,28.70
2018,06,18,15,09,28.70
2018,06,18,15,10,28.70
2018,06,18,15,11,28.80
2018,06,18,15,12,28.80
2018,06,18,15,13,28.80
2018,06,18,15,14,28.80
2018,06,18,15,15,28.80
2018,06,18,15,16,28.80
2018,06,18,15,17,28.80
2018,06,18,15,18,28.80
2018,06,18,15,19,28.80
2018,06,18,15,20,28.80
2018,06,18,15,21,28.80
2018,06,18,15,22,28.80
2018,06,18,15,23,28.80
2018,06,18,15,24,28.80
2018,06,18,15,25,28.90
2018,06,18,15,26,29.00
2018,06,18,15,27,29.10
2018,06,18,15,28,29.20
2018,06,18,15,29,29.30
2018,06,18,15,30,29.30
2018,06,18,15,31,29.30
2018,06,18,15,32,29.20
2018,06,18,15,33,29.10
2018,06,18,15,34,29.10
2018,06,18,15,35,29.10
2018,06,18,15,36,29.20
2018,06,18,15,37,29.30
2018,06,18,15,38,29.30
2018,06,18,15,39,29.30
2018,06,18,15,40,29.20
2018,06,18,15,41,29.20
2018,06,18,15,42,29.10
2018,06,18,15,43,29.10
2018,06,18,15,44,29.00
2018,06,18,15,45,28.90
2018,06,18,15,46,29.00
2018,06,18,15,47,29.10
2018,06,18,15,48,29.20
2018,06,18,15,49,29.30
2018,06,18,15,50,29.40
2018,06,18,15,51,29.40
2018,06,18,15,52,29.50
2018,06,18,15,53,29.50
2018,06,18,15,54,29.60
2018,06,18,15,55,29.70
2018,06,18,15,56,29.70
2018,06,18,15,57,29.70
2018,06,18,15,58,29.80
2018,06,18,15,59,29.90
2018,06,18,16,00,29.90
2018,06,18,16,01,30.00
2018,06,18,16,02,30.10
2018,06,18,16,03,30.20
2018,06,18,16,04,30.20
2018,06,18,16,05,30.10
2018,06,18,16,06,30.20
2018,06,18,16,07,30.20
2018,06,18,16,08,30.20
2018,06,18,16,09,30.20
2018,06,18,16,10,30.20
2018,06,18,16,11,30.20
2018,06,18,16,12,30.20
2018,06,18,16,13,30.10
2018,06,18,16,14,30.10
2018,06,18,16,15,30.10
2018,06,18,16,16,30.10
2018,06,18,16,17,30.10
2018,06,18,16,18,30.20
2018,06,18,16,19,30.20
2018,06,18,16,20,30.20
2018,06,18,16,21,30.30
2018,06,18,16,22,30.30
2018,06,18,16,23,30.30
2018,06,18,16,24,30.30
2018,06,18,16,25,30.30
2018,06,18,16,26,30.30
2018,06,18,16,27,30.30
2018,06,18,16,28,30.30
2018,06,18,16,29,30.30
2018,06,18,16,30,30.30
2018,06,18,16,31,30.30
2018,06,18,16,32,30.30
2018,06,18,16,33,30.30
2018,06,18,16,34,30.30
2018,06,18,16,35,30.40
2018,06,18,16,36,30.40
2018,06,18,16,37,30.50
2018,06,18,16,38,30.60
2018,06,18,16,39,30.70
2018,06,18,16,40,30.80
2018,06,18,16,41,30.80
2018,06,18,16,42,30.90
2018,06,18,16,43,31.00
2018,06,18,16,44,31.00
2018,06,18,16,45,31.10
2018,06,18,16,46,31.10
2018,06,18,16,47,31.20
2018,06,18,16,48,31.20
2018,06,18,16,49,31.30
2018,06,18,16,50,31.30
2018,06,18,16,51,31.30
2018,06,18,16,52,31.40
2018,06,18,16,53,31.40
2018,06,18,16,54,31.40
2018,06,18,16,55,31.40
2018,06,18,16,56,31.50
2018,06,18,16,57,31.50
2018,06,18,16,58,31.50
2018,06,18,16,59,31.60
2018,06,18,17,00,31.60
2018,06,18,17,01,31.60
2018,06,18,17,02,31.60
2018,06,18,17,03,31.60
2018,06,18,17,04,31.70
2018,06,18,17,05,31.70
2018,06,18,17,06,31.80
2018,06,18,17,07,31.80
2018,06,18,17,08,31.80
2018,06,18,17,09,31.90
2018,06,18,17,10,31.90
2018,06,18,17,11,31.90
2018,06,18,17,12,32.00
2018,06,18,17,13,32.00
2018,06,18,17,14,32.10
2018,06,18,17,15,32.10
2018,06,18,17,16,32.20
2018,06,18,17,17,32.20
2018,06,18,17,18,32.20
2018,06,18,17,19,32.20